カタログに戻る

NAVSTAR 66

USA 232

運用中ナビゲーションHEO
NORAD 37753·PAYLOAD·🇺🇸 United States

打ち上げ Jul 16, 2011 から Cape Canaveral Space Force Station

Loading…

次のパス (今後24時間)

TLE

最新Source: Space-Track

元期: Sep 14, 2026, 15:39 UTC

1 37753U 11036A   26257.65244256 -.00000096  00000-0  00000-0 0  9998
2 37753  56.5163 328.5364 0140651  63.0631 326.2604  2.00561223111074

AllMySatでNAVSTAR 66をリアルタイム追跡

Download on the App Store